Wind_Speed
19 19 20 20 21 22 24 25 26 26 26 27 26 26 26 25 26 25 25 24 23 21 19 18 17 16 14 13 12 12 13 13 12 12 12 12 12 12 12 12 11 11 10
19 19 19 19 20 21 22 23 24 25 25 27 26 25 26 26 26 25 25 24 24 22 21 20 19 18 16 15 14 13 13 14 14 14 13 13 12 13 13 13 12 11 11
18 18 18 17 17 19 20 21 22 24 25 26 26 25 25 26 26 26 25 25 25 24 22 21 20 19 18 17 15 14 14 14 14 15 14 14 13 14 14 14 13 12 12
18 18 17 16 16 16 17 19 20 22 24 25 26 26 26 25 26 26 26 25 25 25 24 23 22 21 19 18 17 16 15 15 15 16 16 15 14 14 15 15 14 13 13
18 17 16 15 15 15 15 16 18 20 22 24 24 26 26 26 26 27 28 27 26 26 25 25 24 22 22 21 19 18 16 15 16 16 16 15 16 15 15 16 15 14 14
17 16 15 14 14 14 14 14 15 17 19 22 23 24 25 25 26 26 27 28 28 26 26 26 25 24 23 22 22 20 19 18 17 17 17 17 16 16 15 16 16 15 15
18 16 15 14 13 13 12 13 14 15 17 19 21 23 24 25 26 25 26 28 28 28 27 26 26 25 24 23 23 22 21 20 19 18 18 18 17 17 16 16 16 16 15
18 17 15 13 12 11 11 11 12 13 15 17 19 21 23 24 25 25 26 27 28 28 28 27 27 26 25 25 24 23 22 21 20 19 20 19 18 18 18 16 16 16 16
18 17 14 13 11 10 9 10 11 11 13 15 17 19 21 22 24 25 26 27 28 28 28 27 27 28 27 26 25 24 23 22 22 21 21 20 20 19 19 18 18 17 17
18 16 15 13 12 10 9 9 10 11 11 13 15 17 19 21 22 23 25 25 27 28 28 27 27 27 27 27 27 26 25 24 24 23 22 22 22 20 20 20 19 19 18
18 16 15 13 12 10 8 8 9 10 11 12 14 16 17 20 21 22 23 25 26 27 27 27 27 28 27 26 27 28 28 27 26 25 24 24 23 22 21 21 20 20 20
18 17 15 13 12 10 9 8 8 9 10 11 12 14 16 18 20 22 22 23 25 27 27 27 28 28 28 28 28 28 28 28 27 27 26 25 25 24 23 22 21 21 21
18 17 15 13 12 10 9 8 7 7 9 9 10 11 14 16 18 21 22 22 24 25 27 27 27 29 28 28 28 28 28 28 28 29 28 27 26 27 26 25 24 23 22
18 17 15 14 12 10 9 8 7 7 7 8 9 10 12 14 16 18 19 21 22 24 24 26 28 28 29 28 29 29 29 30 30 30 30 30 29 29 28 27 26 25 24
19 17 15 14 12 11 10 8 7 6 6 7 8 9 11 12 14 16 18 20 21 22 23 25 27 27 27 28 29 30 29 30 31 31 31 30 30 30 31 30 29 28 27
18 17 16 14 13 12 11 9 8 6 6 6 7 8 10 11 13 14 15 17 19 20 22 24 26 27 27 27 28 30 30 30 31 32 31 31 31 31 31 32 31 31 31
18 17 16 14 13 12 11 10 8 7 6 6 6 8 9 11 12 13 13 15 16 18 20 22 24 25 26 27 28 29 30 31 30 32 33 32 33 33 33 32 33 32 32
18 17 16 15 14 13 12 11 9 7 6 5 6 7 8 10 11 11 12 13 14 15 16 18 21 23 24 24 27 29 29 30 30 31 33 33 33 33 33 33 33 33 33
17 17 17 16 15 13 13 12 10 8 6 6 6 6 7 8 9 10 11 12 13 14 15 16 18 21 22 22 24 26 28 29 30 30 31 32 33 33 33 33 33 34 34
17 16 16 16 15 14 13 12 11 9 7 7 6 5 5 6 7 9 10 11 12 14 15 15 17 18 20 21 22 24 26 27 28 29 31 32 33 33 34 35 34 35 35
16 16 16 16 15 14 13 12 11 10 9 8 6 5 5 6 7 8 10 11 12 13 15 16 17 18 18 20 21 22 24 26 27 28 29 31 32 33 34 35 35 36 36
15 15 15 15 15 14 13 12 11 10 10 9 8 6 6 6 7 9 10 11 12 13 14 15 16 17 17 18 20 21 22 24 25 27 29 30 30 31 32 34 35 36 36
14 15 15 15 15 14 14 13 12 11 10 10 9 8 7 7 8 9 10 11 12 13 14 15 16 17 17 18 19 21 22 23 25 26 26 28 29 30 31 32 33 34 35
14 14 14 14 14 14 14 13 13 12 12 11 11 10 9 9 8 9 10 11 12 13 13 14 15 16 17 19 19 19 20 22 23 25 25 26 27 28 28 30 32 33 34
15 14 14 14 14 14 14 14 13 13 12 12 12 11 11 10 10 9 10 11 12 13 13 14 15 16 17 18 19 20 20 21 22 24 26 26 27 28 28 29 31 32 33
15 15 15 14 14 14 14 14 14 14 14 13 13 12 12 11 10 10 10 11 12 13 13 14 15 16 18 18 19 20 21 22 23 24 25 26 27 28 29 30 30 32 33
Wind_Direction
301 294 288 280 271 265 261 258 253 249 248 244 243 240 236 233 230 228 228 226 221 220 220 218 216 216 216 213 214 213 208 205 202 198 195 193 193 194 191 185 182 182 184
305 299 292 285 276 268 263 259 254 249 244 243 242 239 234 232 230 230 229 224 220 219 219 219 217 217 218 216 215 214 211 209 207 203 201 200 199 199 198 196 192 191 190
311 304 297 291 282 272 265 259 254 249 242 241 241 238 234 233 229 228 226 223 222 220 220 221 219 219 220 219 218 216 215 211 210 206 204 203 203 203 201 199 199 199 199
316 310 301 294 289 278 268 261 254 247 242 240 238 236 235 232 227 226 223 224 223 223 223 223 222 221 222 222 220 217 215 213 212 210 208 207 208 208 207 205 203 205 207
322 316 308 299 292 283 272 263 255 248 242 238 237 235 235 233 228 226 226 224 222 223 224 224 224 224 224 223 221 219 217 216 215 213 212 211 210 210 209 208 208 209 211
329 322 313 305 296 287 276 265 255 248 242 238 236 235 234 233 231 229 226 224 223 222 223 224 225 225 225 223 222 221 222 220 218 220 217 214 213 212 210 212 213 213 215
335 329 320 310 301 292 280 265 255 249 243 239 237 236 234 233 231 229 225 222 223 223 223 224 225 226 224 224 224 223 223 222 223 222 219 217 216 215 214 216 218 217 218
338 334 328 320 309 296 282 268 258 251 245 239 237 235 233 231 231 229 226 225 225 223 223 224 225 225 226 225 224 224 223 225 224 223 221 220 219 218 218 218 220 221 222
340 338 333 328 318 304 287 276 261 253 245 240 237 234 232 230 231 231 229 228 226 224 223 224 224 224 226 224 225 226 225 227 226 225 223 222 223 222 222 223 224 225 227
344 341 338 334 327 314 297 284 269 258 251 244 238 235 232 229 229 230 230 228 224 224 224 225 225 225 227 227 227 228 228 228 228 227 226 226 225 225 225 225 227 228 231
347 346 343 340 334 324 307 290 277 268 258 247 241 237 234 230 228 228 227 226 226 224 225 225 225 228 228 228 229 230 230 230 229 229 228 228 228 228 227 228 230 232 235
350 348 346 343 338 331 320 302 284 272 261 253 246 239 234 230 227 226 226 227 228 226 227 228 228 228 229 229 231 232 230 231 231 229 231 231 231 230 229 230 232 235 236
352 350 348 346 343 337 328 315 299 280 264 257 248 240 233 230 227 226 227 228 230 230 229 229 231 230 229 230 231 232 232 231 231 231 233 233 232 231 232 233 235 237 238
354 353 351 350 348 344 337 326 313 293 272 259 250 243 236 230 227 227 227 229 230 231 232 232 232 231 229 230 231 233 234 233 233 233 234 235 235 234 236 237 237 239 240
356 355 355 353 351 349 344 334 322 306 282 265 253 246 240 233 230 230 231 230 231 233 233 232 231 231 232 232 233 233 235 235 235 234 236 237 237 238 239 239 239 241 242
357 358 358 357 356 352 348 341 328 316 298 277 262 252 243 237 235 234 235 233 232 235 237 235 233 234 234 234 234 233 235 237 236 236 237 238 239 240 241 242 242 242 244
358 359 359 359 357 357 356 350 341 323 307 291 274 261 249 243 240 239 236 235 235 236 237 236 235 236 236 237 238 238 237 238 239 238 237 239 241 242 241 242 243 242 243
359 359 359 358 358 358 359 356 348 336 322 305 286 271 256 246 242 241 237 237 237 237 236 237 238 239 240 241 240 239 238 239 240 240 239 240 241 242 242 242 243 243 244
358 360 1 0 0 360 360 0 356 350 339 324 304 284 266 253 246 245 241 238 238 238 237 239 241 241 241 242 240 238 238 240 240 241 241 240 241 243 243 242 243 244 246
355 358 1 2 2 1 1 2 3 359 351 338 322 304 278 261 255 251 247 244 242 241 238 238 239 240 242 244 241 240 239 240 242 242 242 241 243 244 245 245 245 245 247
352 355 357 359 0 0 360 0 2 1 356 347 333 314 291 272 261 257 253 250 247 246 244 241 240 241 244 245 244 243 242 243 244 244 244 243 244 246 246 247 247 248 249
348 351 355 357 359 359 358 357 357 357 354 349 343 327 304 285 273 265 261 257 253 251 249 247 245 244 247 248 248 247 246 244 245 247 248 248 248 248 248 249 249 250 250
340 345 349 353 355 356 356 355 352 350 350 348 343 336 324 303 285 275 268 264 260 257 257 254 251 249 250 250 250 249 249 250 250 250 250 249 251 250 250 251 251 252 252
333 336 340 344 348 351 351 351 349 347 344 343 341 336 329 320 303 289 278 270 267 264 262 260 258 256 256 257 257 255 254 253 252 251 252 253 251 251 252 253 253 253 254
327 328 330 333 337 340 342 343 342 343 342 339 336 334 331 323 311 300 288 278 273 269 267 265 263 261 261 261 261 260 260 259 255 255 255 255 254 254 254 254 254 255 256
320 322 323 325 326 329 332 334 335 335 335 334 331 328 326 324 319 307 297 288 280 274 271 270 268 266 266 264 262 262 263 262 259 257 257 257 256 256 256 256 256 256 257
Height
5805 5803 5802 5802 5802 5803 5804 5805 5807 5810 5812 5816 5818 5822 5825 5828 5831 5835 5837 5840 5843 5846 5848 5851 5854 5856 5858 5860 5862 5864 5866 5869 5871 5873 5875 5877 5879 5882 5884 5886 5888 5890 5892
5801 5799 5797 5796 5796 5797 5798 5799 5801 5803 5806 5809 5813 5816 5820 5822 5826 5830 5833 5836 5839 5842 5845 5848 5851 5854 5856 5858 5861 5863 5865 5867 5869 5872 5874 5876 5878 5881 5883 5885 5887 5889 5891
5797 5794 5793 5792 5791 5791 5792 5793 5795 5797 5800 5803 5807 5810 5814 5817 5821 5825 5829 5832 5835 5839 5842 5845 5848 5851 5854 5856 5858 5861 5863 5865 5867 5870 5872 5875 5877 5879 5881 5884 5886 5888 5890
5793 5791 5789 5787 5786 5786 5786 5787 5789 5791 5794 5797 5801 5804 5808 5812 5815 5820 5824 5827 5831 5835 5838 5842 5845 5848 5851 5853 5856 5858 5861 5863 5866 5868 5870 5873 5875 5877 5880 5882 5885 5887 5889
5790 5787 5785 5783 5782 5782 5782 5782 5784 5785 5788 5792 5795 5799 5802 5807 5810 5815 5819 5822 5826 5831 5834 5838 5841 5845 5848 5851 5853 5856 5858 5861 5864 5866 5868 5871 5873 5876 5878 5881 5883 5885 5887
5787 5784 5782 5780 5779 5778 5778 5778 5779 5781 5783 5786 5790 5794 5797 5801 5805 5809 5813 5818 5822 5826 5830 5833 5837 5841 5844 5847 5850 5853 5856 5858 5861 5864 5866 5868 5871 5873 5876 5878 5881 5883 5886
5785 5782 5779 5777 5775 5775 5774 5775 5776 5777 5779 5782 5785 5789 5792 5796 5800 5804 5808 5812 5816 5821 5825 5829 5833 5837 5840 5843 5847 5849 5852 5855 5858 5861 5864 5866 5868 5871 5873 5876 5879 5881 5883
5783 5780 5777 5775 5773 5772 5771 5771 5772 5774 5775 5778 5781 5784 5787 5792 5795 5799 5803 5807 5811 5816 5820 5824 5828 5832 5836 5839 5843 5846 5849 5852 5855 5857 5860 5863 5866 5868 5871 5873 5876 5878 5881
5782 5778 5775 5773 5771 5769 5769 5769 5769 5770 5772 5774 5776 5779 5783 5786 5790 5794 5798 5802 5806 5810 5815 5819 5823 5827 5831 5835 5838 5842 5845 5848 5851 5854 5857 5860 5862 5865 5868 5870 5873 5875 5878
5780 5777 5774 5771 5769 5767 5767 5766 5767 5768 5769 5770 5772 5775 5778 5782 5785 5789 5793 5797 5801 5805 5810 5814 5818 5822 5826 5830 5834 5837 5840 5844 5847 5850 5853 5856 5859 5862 5864 5867 5869 5872 5874
5780 5776 5772 5770 5768 5766 5765 5764 5765 5765 5766 5767 5769 5771 5774 5777 5780 5784 5788 5792 5796 5800 5805 5809 5813 5817 5821 5825 5828 5832 5835 5839 5842 5845 5849 5852 5855 5858 5860 5863 5866 5868 5870
5779 5775 5772 5769 5766 5765 5764 5763 5762 5763 5763 5764 5766 5767 5770 5772 5776 5780 5783 5787 5791 5795 5799 5803 5808 5812 5816 5820 5823 5826 5830 5833 5837 5841 5844 5847 5850 5853 5856 5859 5861 5864 5866
5779 5775 5771 5768 5766 5764 5762 5761 5761 5761 5761 5762 5763 5764 5766 5769 5772 5775 5779 5783 5787 5791 5794 5798 5802 5806 5810 5814 5817 5820 5824 5828 5832 5835 5838 5842 5845 5848 5851 5854 5857 5859 5861
5778 5775 5771 5768 5765 5763 5762 5760 5759 5759 5759 5760 5760 5762 5764 5766 5768 5771 5775 5779 5782 5786 5789 5793 5797 5800 5804 5808 5812 5815 5818 5822 5826 5829 5833 5836 5839 5842 5845 5848 5851 5854 5856
5778 5774 5771 5768 5765 5763 5761 5760 5758 5757 5757 5758 5759 5760 5761 5763 5765 5768 5771 5774 5778 5781 5784 5788 5791 5795 5798 5802 5805 5809 5812 5816 5819 5823 5826 5830 5833 5836 5839 5842 5845 5848 5851
5778 5774 5771 5768 5765 5763 5760 5759 5757 5756 5756 5756 5757 5758 5759 5760 5762 5765 5768 5770 5773 5776 5779 5782 5786 5789 5792 5796 5799 5802 5806 5809 5813 5816 5820 5823 5826 5829 5833 5836 5838 5841 5844
5778 5775 5771 5768 5765 5763 5760 5758 5756 5755 5755 5755 5755 5756 5757 5758 5760 5762 5764 5767 5769 5772 5775 5777 5780 5783 5787 5790 5793 5796 5799 5802 5806 5809 5813 5816 5819 5822 5825 5828 5831 5834 5837
5779 5775 5772 5768 5766 5763 5760 5758 5756 5755 5754 5754 5754 5754 5755 5756 5757 5759 5761 5763 5766 5768 5771 5773 5776 5778 5781 5784 5787 5790 5793 5796 5799 5802 5805 5809 5812 5815 5818 5821 5823 5826 5829
5779 5775 5772 5769 5766 5763 5761 5758 5756 5754 5754 5753 5753 5753 5753 5754 5755 5757 5759 5761 5763 5765 5767 5769 5771 5773 5776 5778 5780 5783 5786 5789 5792 5795 5798 5801 5804 5807 5810 5813 5816 5818 5821
5779 5776 5773 5769 5766 5764 5761 5759 5757 5755 5754 5753 5752 5752 5752 5753 5753 5755 5756 5758 5759 5761 5763 5765 5766 5768 5770 5772 5775 5777 5780 5782 5785 5788 5790 5793 5796 5799 5802 5805 5808 5810 5812
5779 5776 5773 5770 5767 5764 5762 5759 5757 5756 5754 5753 5752 5751 5751 5751 5752 5753 5754 5755 5756 5757 5759 5760 5762 5764 5766 5768 5769 5771 5774 5776 5778 5781 5783 5786 5788 5791 5793 5796 5799 5801 5804
5778 5775 5773 5770 5767 5764 5762 5760 5758 5756 5754 5753 5752 5750 5750 5750 5750 5750 5751 5752 5753 5754 5755 5756 5758 5760 5761 5763 5764 5766 5768 5770 5772 5775 5776 5778 5780 5782 5784 5787 5789 5792 5794
5777 5775 5772 5770 5767 5764 5762 5760 5758 5756 5754 5753 5751 5750 5749 5748 5748 5748 5748 5749 5750 5750 5751 5753 5754 5755 5757 5758 5759 5761 5762 5764 5766 5767 5769 5771 5772 5774 5776 5778 5780 5782 5784
5776 5774 5771 5769 5767 5764 5762 5759 5757 5755 5754 5752 5750 5749 5748 5747 5746 5746 5746 5746 5746 5747 5748 5749 5750 5751 5752 5753 5754 5755 5756 5758 5759 5760 5762 5763 5764 5766 5768 5769 5771 5773 5775
5774 5772 5770 5768 5766 5763 5761 5759 5756 5754 5753 5751 5749 5747 5746 5745 5744 5743 5743 5743 5743 5743 5744 5744 5745 5746 5747 5748 5749 5750 5751 5752 5753 5754 5755 5756 5757 5758 5760 5761 5763 5764 5766
5772 5770 5768 5766 5764 5762 5759 5757 5755 5753 5751 5749 5748 5746 5744 5743 5742 5741 5740 5740 5740 5740 5740 5740 5741 5741 5742 5742 5743 5744 5745 5746 5746 5747 5748 5749 5750 5751 5752 5753 5754 5755 5756